This demonstration page uses our WeatherBlox Daily Observations layout. Learn more.

Left ArrowRight Arrow

Hourly Observations for July 5, 2022

Temp ( °F °C ) Dew Point ( °F °C ) Humidity (%) Winds ( mph kmh ) Pressure ( in mb ) Visibility ( mi km ) Precip ( " mm )
12:15 am 00:15 Clear 81 27 68 20 66 66 SSE 6 9 29.97 1015 10 16 N/A
12:35 am 00:35 Clear 79 26 68 20 70 70 SSE 5 7 29.97 1015 10 16 N/A
12:55 am 00:55 Clear 79 26 68 20 70 70 SSE 5 7 29.97 1015 10 16 N/A
1:15 am 01:15 Clear 77 25 68 20 74 74 SSE 5 7 29.97 1015 10 16 N/A
1:35 am 01:35 Clear 77 25 68 20 74 74 SSE 6 9 29.97 1015 10 16 N/A
1:55 am 01:55 Clear 77 25 68 20 74 74 S 6 9 29.96 1015 10 16 N/A
2:15 am 02:15 Clear 77 25 68 20 74 74 SSE 5 7 29.95 1014 10 16 N/A
2:35 am 02:35 Clear 77 25 70 21 79 79 SSE 6 9 29.95 1014 10 16 N/A
2:55 am 02:55 Clear 75 24 70 21 83 83 S 7 11 29.96 1014 10 16 N/A
3:15 am 03:15 Clear 77 25 70 21 79 79 S 5 7 29.95 1014 10 16 N/A
3:35 am 03:35 Clear 77 25 70 21 79 79 S 5 7 29.95 1014 10 16 N/A
3:55 am 03:55 Clear 77 25 70 21 79 79 S 6 9 29.95 1014 10 16 N/A
4:15 am 04:15 Partly Cloudy 75 24 72 22 89 89 S 5 7 29.96 1014 10 16 N/A
4:35 am 04:35 Clear 75 24 72 22 89 89 S 3 6 29.97 1015 10 16 N/A
4:55 am 04:55 Clear 75 24 72 22 89 89 S 3 6 29.98 1015 10 16 N/A
5:15 am 05:15 Clear 75 24 72 22 89 89 SSE 5 7 29.98 1015 10 16 N/A
5:35 am 05:35 Clear 75 24 72 22 89 89 S 5 7 29.98 1015 10 16 N/A
5:55 am 05:55 Clear 75 24 72 22 89 89 S 5 7 29.98 1015 10 16 N/A
6:15 am 06:15 Clear 75 24 72 22 89 89 S 5 7 29.98 1015 10 16 N/A
6:35 am 06:35 Mostly Cloudy 75 24 72 22 89 89 NNE 8 13 30.00 1016 10 16 N/A
6:55 am 06:55 Mostly Cloudy 75 24 72 22 89 89 NE 6 9 30.00 1016 10 16 N/A
7:15 am 07:15 Mostly Cloudy 73 23 70 21 89 89 ENE 6 9 29.99 1016 10 16 N/A
7:35 am 07:35 Mostly Cloudy 75 24 70 21 83 83 E 7 11 29.99 1015 10 16 N/A
7:55 am 07:55 Mostly Cloudy 75 24 68 20 78 78 E 6 9 29.98 1015 10 16 N/A
8:15 am 08:15 Partly Cloudy 75 24 68 20 78 78 SE 6 9 29.98 1015 10 16 N/A
8:35 am 08:35 Partly Cloudy 79 26 68 20 70 70 SSE 9 15 29.97 1015 10 16 N/A
8:55 am 08:55 Mostly Cloudy 81 27 72 22 74 74 SSE 8 13 29.96 1014 10 16 N/A
9:15 am 09:15 Partly Cloudy 81 27 72 22 74 74 SSE 7 11 29.96 1014 10 16 N/A
9:35 am 09:35 Sunny 82 28 73 23 74 74 S 6 9 29.94 1014 10 16 N/A
9:55 am 09:55 Sunny 84 29 73 23 70 70 SSW 9 15 29.94 1014 10 16 N/A
10:15 am 10:15 Partly Cloudy 86 30 75 24 70 70 S 9 15 29.94 1014 10 16 N/A
10:35 am 10:35 Mostly Cloudy 86 30 75 24 70 70 SSW 8 13 29.93 1013 10 16 N/A
10:55 am 10:55 Mostly Cloudy 86 30 75 24 70 70 S 7 11 29.94 1014 10 16 N/A
11:15 am 11:15 Mostly Cloudy 88 31 75 24 66 66 SSW 8 13 29.94 1014 10 16 N/A
11:35 am 11:35 Partly Cloudy 88 31 77 25 70 70 S 7 11 29.94 1014 10 16 N/A
11:55 am 11:55 Partly Cloudy 90 32 77 25 67 67 SW 8 13 29.93 1014 10 16 N/A
12:15 pm 12:15 Partly Cloudy 91 33 75 24 59 59 SW 8 13 29.93 1014 10 16 N/A
12:35 pm 12:35 Sunny 93 34 75 24 56 56 WSW 6 9 29.93 1013 10 16 N/A
12:55 pm 12:55 Partly Cloudy 95 35 75 24 53 53 W 8 13 29.91 1013 10 16 N/A
1:15 pm 13:15 Sunny 95 35 75 24 53 53 SW 9 15 29.91 1013 10 16 N/A
1:35 pm 13:35 Partly Cloudy 95 35 75 24 53 53 WSW 8 13 29.90 1013 10 16 N/A
1:55 pm 13:55 Partly Cloudy 97 36 73 23 47 47 W 13 20 29.89 1012 10 16 N/A
2:15 pm 14:15 Partly Cloudy 97 36 75 24 50 50 W 8 13 29.88 1012 10 16 N/A
2:35 pm 14:35 Mostly Cloudy 95 35 73 23 50 50 SW 9 15 29.87 1012 10 16 N/A
2:55 pm 14:55 Partly Cloudy 99 37 73 23 44 44 W 15 24 29.86 1011 10 16 N/A
3:15 pm 15:15 Mostly Cloudy 95 35 73 23 50 50 W 12 19 29.85 1011 10 16 N/A
3:35 pm 15:35 Cloudy 95 35 73 23 50 50 W 8 13 29.85 1011 10 16 N/A
3:55 pm 15:55 Mostly Cloudy 99 37 73 23 44 44 W 10 17 29.84 1010 10 16 N/A
4:15 pm 16:15 Partly Cloudy 99 37 72 22 42 42 W 16 26 29.84 1010 10 16 N/A
4:35 pm 16:35 Sunny 99 37 73 23 44 44 W 13 20 29.83 1010 10 16 N/A
4:55 pm 16:55 Partly Cloudy 99 37 73 23 44 44 SW 8 13 29.84 1010 10 16 N/A
5:15 pm 17:15 Mostly Cloudy 99 37 73 23 44 44 WSW 9 15 29.83 1010 10 16 N/A
5:35 pm 17:35 Mostly Cloudy 97 36 72 22 44 44 SW 8 13 29.83 1010 10 16 N/A
5:55 pm 17:55 Mostly Cloudy 97 36 73 23 47 47 W 13 20 29.83 1010 10 16 N/A
6:15 pm 18:15 Partly Cloudy 97 36 73 23 47 47 W 12 19 29.83 1010 10 16 N/A
6:35 pm 18:35 Partly Cloudy 97 36 75 24 50 50 WSW 8 13 29.83 1010 10 16 N/A
6:55 pm 18:55 Mostly Cloudy 93 34 73 23 53 53 SW 14 22 29.83 1010 10 16 N/A
7:15 pm 19:15 Mostly Cloudy 93 34 73 23 53 53 SW 9 15 29.83 1010 10 16 N/A
7:35 pm 19:35 Mostly Cloudy 95 35 73 23 50 50 WSW 13 20 29.82 1010 10 16 N/A
7:55 pm 19:55 Partly Cloudy 93 34 73 23 53 53 SW 10 17 29.82 1010 10 16 N/A
8:15 pm 20:15 Partly Cloudy 91 33 73 23 56 56 SW 10 17 29.82 1010 10 16 N/A
8:35 pm 20:35 Sunny 90 32 73 23 59 59 SW 8 13 29.82 1010 10 16 N/A
8:55 pm 20:55 Sunny 90 32 73 23 59 59 SW 10 17 29.81 1010 10 16 N/A
9:15 pm 21:15 Sunny 90 32 75 24 63 63 SW 7 11 29.81 1010 10 16 N/A
9:35 pm 21:35 Clear 88 31 75 24 66 66 SW 7 11 29.83 1010 10 16 N/A
9:55 pm 21:55 Clear 88 31 75 24 66 66 SW 7 11 29.84 1010 10 16 N/A
10:15 pm 22:15 Clear 86 30 75 24 70 70 SSW 7 11 29.85 1011 10 16 N/A
10:35 pm 22:35 Clear 86 30 75 24 70 70 SW 6 9 29.86 1011 10 16 N/A
10:55 pm 22:55 Clear 86 30 75 24 70 70 SW 7 11 29.86 1011 10 16 N/A
11:15 pm 23:15 Clear 86 30 75 24 70 70 SW 7 11 29.87 1011 10 16 N/A
11:35 pm 23:35 Clear 86 30 75 24 70 70 SW 7 11 29.86 1011 10 16 N/A
11:55 pm 23:55 Clear 86 30 75 24 70 70 SW 9 15 29.86 1011 10 16 N/A

Powered by AerisWeather